Regional Weather Roundup
Issued by NWS

Home | Current Version | Previous Version | Graphics & Text | Print | Product List | Glossary On
Versions: 1 2 3 4 5 6 7 8 9 10 11 12 13 14 15 16 17 18 19 20 21 22 23 24 25 26 27 28 29 30 31 32 33 34 35 36 37 38 39 40 41 42 43 44 45 46 47 48 49 50
332
ASUS45 KCYS 251410
RWRWY

WYOMING REGIONAL WEATHER ROUNDUP
NATIONAL WEATHER SERVICE CHEYENNE WY
800 AM MDT SUN JUN 25 2017

NOTE:  "FAIR" INDICATES FEW OR NO CLOUDS BELOW 12,000 FEET
WITH NO SIGNIFICANT WEATHER AND/OR OBSTRUCTIONS TO VISIBILITY.

WYZ001-251500-
YELLOWSTONE NATIONAL PARK

CITY           SKY/WX    TMP DP  RH WIND       PRES   REMARKS
LK YELLOWSTONE   N/A     45  36  70 E3        30.49S
W YELLOWSTONE  NOT AVBL

$$
WYZ002>013-054>058-071-098>099-251500-
NORTHERN WYOMING

CITY           SKY/WX    TMP DP  RH WIND       PRES   REMARKS
JACKSON        SUNNY     48  41  76 CALM      30.42R
CODY           FAIR      58  37  45 CALM      30.40R
GREYBULL       FAIR      61  32  33 NW5       30.34R
WORLAND        FAIR      60  38  43 VRB3      30.35R
SHERIDAN       FAIR      55  43  63 CALM      30.34R
BUFFALO        FAIR      59  39  47 CALM      30.37R
GILLETTE       PTSUNNY   57  38  48 S7        30.35S
NEWCASTLE      FAIR      59  32  36 S8        30.39R

$$
WYZ014>020-022>026-101>103-251500-
CENTRAL WYOMING

CITY           SKY/WX    TMP DP  RH WIND       PRES   REMARKS
BIG PINEY      FAIR      52  37  56 CALM      30.45R
PINEDALE       FAIR      50  37  62 NW6       30.46R
DUBOIS         FAIR      46  34  61 NW7       30.47S
LANDER         FAIR      55  38  52 NW9       30.40R
RIVERTON       FAIR      56  33  42 NE8       30.40R
CASPER         FAIR      56  34  43 SW7       30.38R
DOUGLAS        PTSUNNY   55  33  43 S10       30.40R

$$
WYZ021-027>030-104>119-251500-
SOUTHERN WYOMING

CITY           SKY/WX    TMP DP  RH WIND       PRES   REMARKS
EVANSTON       FAIR      54  36  50 E8        30.41S
KEMMERER         N/A     55  34  44 N8        30.45R
FORT BRIDGER   FAIR      55  34  45 NE6       30.46R
ROCK SPRINGS   FAIR      56  32  40 E13       30.42R
DIXON          FAIR      57  32  38 E5        30.40S
RAWLINS        FAIR      53  33  46 NE14      30.42R
SARATOGA       FAIR      52  37  58 E8        30.43R
LARAMIE        FAIR      53  44  71 S9        30.43R
CHEYENNE       PTSUNNY   53  40  61 E6        30.42R
TORRINGTON     FAIR      58  35  42 S6        30.38R
PINE BLUFFS    CLOUDY    54  36  50 E10       30.40R

$$




USA.gov is the U.S. government's official web portal to all federal, state and local government web resources and services.